Вернуться в каталог

ONEWEB-0011

АктивенСвязьPO
NORAD 44062·PAYLOAD·🇬🇧 United Kingdom

Запущен Feb 27, 2019 с Guiana Space Centre

Loading…

Ближайшие Пролёты (ближайшие 24 часа)

TLE

СвежийSource: CelesTrak SupGP

Эпоха: Sep 14, 2026, 18:33 UTC

1 44062C 19010F   26257.77345322  .00001224  00000+0  32562-2 0  2577
2 44062  87.8990 241.3403 0001823  85.3455   3.4519 13.15546303    14

Отслеживайте ONEWEB-0011 в реальном времени с AllMySat

Download on the App Store